User: anonymous   Login
Location: Caltech
(34.1382°N, 118.1253°W)
Time: 05:15:43
(UTC-07:00)
Language:

Saudisat 1A - Orbit

View from above orbital plane
View from above orbital plane
View from above satellite
View from above satellite

Ground track
Ground track

The orbit data is extracted from the following two-line orbital elements,

1 26546U 00057B   16269.99213265  .00000291  00000-0  45691-4 0  9997
2 26546  64.5536  82.1107 0046653 256.3547 103.2365 14.90323785867282
Epoch (UTC): 25 September 2016 23:48:40
Eccentricity: 0.0046653
inclination: 64.5536°
perigee height: 564 km
apogee height: 629 km
right ascension of ascending node: 82.1107°
argument of perigee: 256.3547°
revolutions per day: 14.90323785
mean anomaly at epoch: 103.2365°
orbit number at epoch: 86728

The dashed part of the orbit path shows where the satellite is in the earth's shadow,  

DLR